When you browse on this site, cookies collect data to enhance your experience and personalize the content and advertising you see.
Visit our Privacy Policy to learn more. By continuing to use the site, you agree to this use of cookies and data.
  • In Austria
  • List of Countries
  • For 7 days
  • Water Temperature
  • Satellite Maps
  • Weather Map
  • News
  • Weather Widgets
  • user-avatar
    Login

    Hourly Weather Rotorua

    Today, 19 February, Tuesday

    Time Temperature Precipitation Wind Pressure Humidity
    00:00 +12°C° 0 mm 1 mps 725 mmHg 93%
    01:00 +12°C° 0 mm 1 mps 725 mmHg 95%
    02:00 +11°C° 0 mm 1 mps 725 mmHg 96%
    03:00 +11°C° 0 mm 1 mps 725 mmHg 97%
    04:00 +11°C° 0 mm 1 mps 725 mmHg 97%
    05:00 +10°C° 0 mm 0 mps 725 mmHg 97%
    06:00 +11°C° 0 mm 1 mps 725 mmHg 97%
    07:00 +13°C° 0 mm 0 mps 725 mmHg 83%
    08:00 +17°C° 0 mm 0 mps 726 mmHg 69%
    09:00 +20°C° 0 mm 0 mps 726 mmHg 55%
    10:00 +22°C° 0 mm 0 mps 726 mmHg 47%
    11:00 +26°C° 0 mm 1 mps 726 mmHg 40%
    12:00 +27°C° 0 mm 1 mps 726 mmHg 38%
    13:00 +28°C° 0 mm 1 mps 726 mmHg 36%
    14:00 +28°C° 0 mm 1 mps 725 mmHg 35%
    15:00 +29°C° 0 mm 2 mps 725 mmHg 33%
    16:00 +27°C° 0 mm 2 mps 725 mmHg 39%
    17:00 +26°C° 0 mm 2 mps 725 mmHg 45%
    18:00 +24°C° 0 mm 2 mps 725 mmHg 53%
    19:00 +21°C° 0 mm 1 mps 725 mmHg 67%
    20:00 +19°C° 0 mm 1 mps 725 mmHg 81%
    21:00 +14°C° 0 mm 0 mps 725 mmHg 95%
    22:00 +14°C° 0 mm 0 mps 725 mmHg 96%
    23:00 +13°C° 0 mm 0 mps 725 mmHg 97%

    Tomorrow, 20 February, Wednesday

    Time Temperature Precipitation Wind Pressure Humidity
    00:00 +13°C° 0 mm 0 mps 725 mmHg 99%
    01:00 +12°C° 0 mm 0 mps 725 mmHg 99%
    02:00 +12°C° 0 mm 0 mps 725 mmHg 99%
    03:00 +12°C° 0 mm 0 mps 725 mmHg 99%
    04:00 +12°C° 0 mm 0 mps 725 mmHg 99%
    05:00 +11°C° 0 mm 0 mps 725 mmHg 99%
    06:00 +11°C° 0 mm 0 mps 725 mmHg 99%
    07:00 +14°C° 0 mm 0 mps 726 mmHg 85%
    08:00 +18°C° 0 mm 0 mps 726 mmHg 71%
    09:00 +21°C° 0 mm 0 mps 727 mmHg 57%
    10:00 +24°C° 0 mm 1 mps 727 mmHg 51%
    11:00 +26°C° 0 mm 1 mps 727 mmHg 44%
    12:00 +28°C° 0 mm 2 mps 727 mmHg 37%
    13:00 +28°C° 0 mm 2 mps 727 mmHg 38%
    14:00 +28°C° 0 mm 2 mps 726 mmHg 38%
    15:00 +29°C° 0 mm 2 mps 726 mmHg 39%
    16:00 +27°C° 0 mm 2 mps 726 mmHg 47%
    17:00 +26°C° 0 mm 2 mps 726 mmHg 55%
    18:00 +25°C° 0 mm 2 mps 726 mmHg 63%
    19:00 +23°C° 0.1 mm 1 mps 726 mmHg 75%
    20:00 +21°C° 0.1 mm 1 mps 727 mmHg 87%
    21:00 +19°C° 0.1 mm 1 mps 727 mmHg 99%
    22:00 +17°C° 0 mm 0 mps 727 mmHg 99%
    23:00 +17°C° 0 mm 0 mps 728 mmHg 99%

    Day after tomorrow, 21 February, Thursday

    Time Temperature Precipitation Wind Pressure Humidity
    00:00 +17°C° 0 mm 0 mps 728 mmHg 99%
    01:00 +17°C° 0 mm 0 mps 728 mmHg 99%
    02:00 +17°C° 0 mm 0 mps 727 mmHg 99%
    03:00 +16°C° 0 mm 0 mps 727 mmHg 99%
    04:00 +16°C° 0 mm 0 mps 727 mmHg 99%
    05:00 +16°C° 0 mm 0 mps 728 mmHg 99%
    06:00 +16°C° 0 mm 0 mps 728 mmHg 99%
    07:00 +19°C° 0 mm 1 mps 728 mmHg 95%
    08:00 +20°C° 0 mm 1 mps 728 mmHg 91%
    09:00 +21°C° 0 mm 1 mps 729 mmHg 87%
    10:00 +22°C° 0.8 mm 1 mps 729 mmHg 89%
    11:00 +22°C° 0.8 mm 1 mps 729 mmHg 91%
    12:00 +21°C° 0.8 mm 2 mps 729 mmHg 94%
    13:00 +23°C° 0.4 mm 2 mps 729 mmHg 85%
    14:00 +24°C° 0.4 mm 2 mps 728 mmHg 76%
    15:00 +25°C° 0.4 mm 2 mps 728 mmHg 68%
    16:00 +24°C° 0 mm 2 mps 728 mmHg 68%
    17:00 +23°C° 0 mm 2 mps 728 mmHg 69%
    18:00 +21°C° 0 mm 2 mps 728 mmHg 69%
    19:00 +20°C° 0 mm 2 mps 728 mmHg 78%
    20:00 +19°C° 0 mm 1 mps 728 mmHg 88%
    21:00 +18°C° 0 mm 1 mps 728 mmHg 97%
    22:00 +18°C° 0 mm 1 mps 728 mmHg 98%
    23:00 +18°C° 0 mm 1 mps 728 mmHg 98%

    22 February, Friday

    Time Temperature Precipitation Wind Pressure Humidity
    00:00 +18°C° 0 mm 1 mps 728 mmHg 99%
    01:00 +16°C° 0 mm 0 mps 728 mmHg 99%
    02:00 +16°C° 0 mm 0 mps 728 mmHg 98%
    03:00 +16°C° 0 mm 0 mps 727 mmHg 98%
    04:00 +16°C° 0 mm 0 mps 727 mmHg 99%
    05:00 +15°C° 0 mm 0 mps 727 mmHg 99%
    06:00 +15°C° 0 mm 0 mps 727 mmHg 99%
    07:00 +16°C° 0.1 mm 0 mps 727 mmHg 96%
    08:00 +19°C° 0.1 mm 1 mps 727 mmHg 93%
    09:00 +20°C° 0.1 mm 1 mps 727 mmHg 90%
    10:00 +21°C° 0.2 mm 1 mps 727 mmHg 87%
    11:00 +20°C° 0.2 mm 2 mps 727 mmHg 84%
    12:00 +20°C° 0.2 mm 2 mps 727 mmHg 81%
    13:00 +20°C° 0.6 mm 2 mps 726 mmHg 86%
    14:00 +19°C° 0.6 mm 2 mps 726 mmHg 92%
    15:00 +19°C° 0.6 mm 1 mps 725 mmHg 97%
    16:00 +19°C° 0.9 mm 1 mps 725 mmHg 97%
    17:00 +18°C° 0.9 mm 1 mps 725 mmHg 98%
    18:00 +18°C° 0.9 mm 1 mps 725 mmHg 98%
    19:00 +18°C° 0.2 mm 1 mps 725 mmHg 99%
    20:00 +16°C° 0.2 mm 1 mps 725 mmHg 99%
    21:00 +16°C° 0.2 mm 1 mps 724 mmHg 99%
    22:00 +16°C° 1.8 mm 1 mps 724 mmHg 99%
    23:00 +16°C° 1.8 mm 1 mps 724 mmHg 99%

    23 February, Saturday

    Time Temperature Precipitation Wind Pressure Humidity
    00:00 +16°C° 1.8 mm 1 mps 723 mmHg 99%
    01:00 +16°C° 1.1 mm 1 mps 722 mmHg 99%
    02:00 +16°C° 1.1 mm 1 mps 722 mmHg 99%
    03:00 +16°C° 1.1 mm 1 mps 721 mmHg 99%
    04:00 +16°C° 5.6 mm 1 mps 720 mmHg 99%
    05:00 +16°C° 5.6 mm 1 mps 719 mmHg 99%
    06:00 +16°C° 5.6 mm 1 mps 719 mmHg 99%
    07:00 +16°C° 4.6 mm 1 mps 719 mmHg 99%
    08:00 +15°C° 4.6 mm 1 mps 718 mmHg 99%
    09:00 +15°C° 4.6 mm 1 mps 718 mmHg 99%
    10:00 +16°C° 0.7 mm 1 mps 718 mmHg 97%
    11:00 +18°C° 0.7 mm 1 mps 717 mmHg 95%
    12:00 +19°C° 0.7 mm 1 mps 717 mmHg 93%
    13:00 +21°C° 0 mm 1 mps 716 mmHg 80%
    14:00 +23°C° 0 mm 1 mps 716 mmHg 67%
    15:00 +25°C° 0 mm 1 mps 716 mmHg 54%
    16:00 +24°C° 0 mm 1 mps 715 mmHg 60%
    17:00 +23°C° 0 mm 1 mps 715 mmHg 67%
    18:00 +22°C° 0 mm 1 mps 715 mmHg 73%
    19:00 +20°C° 0.1 mm 1 mps 715 mmHg 82%
    20:00 +19°C° 0.1 mm 1 mps 715 mmHg 90%
    21:00 +18°C° 0.1 mm 1 mps 715 mmHg 98%
    22:00 +18°C° 0.3 mm 1 mps 714 mmHg 99%
    23:00 +18°C° 0.3 mm 1 mps 713 mmHg 99%

    24 February, Sunday

    Time Temperature Precipitation Wind Pressure Humidity
    00:00 +18°C° 0.3 mm 1 mps 713 mmHg 99%
    01:00 +16°C° 0.1 mm 1 mps 712 mmHg 99%
    02:00 +16°C° 0.1 mm 2 mps 712 mmHg 99%
    03:00 +16°C° 0.1 mm 2 mps 711 mmHg 99%
    04:00 +16°C° 0.6 mm 2 mps 711 mmHg 99%
    05:00 +16°C° 0.6 mm 2 mps 710 mmHg 98%
    06:00 +15°C° 0.6 mm 2 mps 710 mmHg 98%
    07:00 +15°C° 0.9 mm 2 mps 710 mmHg 98%
    08:00 +14°C° 0.9 mm 2 mps 710 mmHg 98%
    09:00 +13°C° 0.9 mm 2 mps 711 mmHg 98%
    10:00 +15°C° 0 mm 2 mps 711 mmHg 79%
    11:00 +17°C° 0 mm 3 mps 711 mmHg 59%
    12:00 +20°C° 0 mm 4 mps 711 mmHg 39%
    13:00 +20°C° 0 mm 4 mps 711 mmHg 40%
    14:00 +19°C° 0 mm 4 mps 711 mmHg 41%
    15:00 +19°C° 0 mm 4 mps 711 mmHg 42%
    16:00 +19°C° 0 mm 4 mps 711 mmHg 44%
    17:00 +18°C° 0 mm 3 mps 711 mmHg 47%
    18:00 +17°C° 0 mm 3 mps 712 mmHg 49%
    19:00 +15°C° 0 mm 2 mps 712 mmHg 58%
    20:00 +13°C° 0 mm 2 mps 713 mmHg 68%
    21:00 +11°C° 0 mm 1 mps 714 mmHg 77%
    22:00 +11°C° 0 mm 1 mps 714 mmHg 82%
    23:00 +10°C° 0 mm 1 mps 714 mmHg 87%
    Show more